Regional Weather Roundup
Issued by NWS

Home | Current Version | Previous Version | Graphics & Text | Print | Product List | Glossary On
Versions: 1 2 3 4 5 6 7 8 9 10 11 12 13 14 15 16 17 18 19 20 21 22 23 24 25 26 27 28 29 30 31 32 33 34 35 36 37 38 39 40 41 42 43 44 45 46 47 48 49 50
000
ASUS43 KLOT 280908
RWRIL

ILLINOIS REGIONAL WEATHER ROUNDUP
NATIONAL WEATHER SERVICE CHICAGO/ROMEOVILLE IL
300 AM CST TUE FEB 28 2017

NOTE: "FAIR" INDICATES FEW OR NO CLOUDS BELOW 12,000 FEET WITH NO
SIGNIFICANT WEATHER AND/OR OBSTRUCTIONS TO VISIBILITY.

* THESE STATIONS ARE NOT UNDER NWS QUALITY CONTROL. THEY ALSO MAY NOT
  REPORT WEATHER SUCH AS PRECIPITATION OR FOG.

ILZ001-002-007-009-015-016-024-281000-
NORTHWEST ILLINOIS

CITY           SKY/WX    TMP DP  RH WIND       PRES   REMARKS
MOLINE         CLOUDY    52  45  77 S15G21    29.80F
STERLING*      CLOUDY    50  46  86 S6        29.84F
$$

ILZ003-004-008-010-011-017-018-281000-
NORTH CENTRAL ILLINOIS

CITY           SKY/WX    TMP DP  RH WIND       PRES   REMARKS
ROCKFORD       CLOUDY    47  43  86 SE10      29.87F
FREEPORT*      CLOUDY    44  43  95 SE7       29.84F
ROCHELLE*      CLOUDY    46  44  93 S13       29.85F
DE KALB*       CLOUDY    46  44  93 SE14G22   29.87F
PERU*          CLOUDY    48  44  85 S15G21    29.87F
$$

ILZ005-006-012>014-019>023-281000-
NORTHEAST ILLINOIS

CITY           SKY/WX    TMP DP  RH WIND       PRES   REMARKS
CHICAGO-OHARE  LGT RAIN  48  43  82 S13       29.89F
CHICAGO-MIDWAY CLOUDY    48  42  80 S10       29.90F
AURORA         CLOUDY    47  43  86 SE12      29.89F
LANSING*       HVY RAIN  46  45  99 S15G24    29.95F
JOLIET*        RAIN      49  47  93 S14G20    29.91F
WAUKEGAN       CLOUDY    40  39  97 SE10      29.89F FOG
DUPAGE AIRPORT LGT RAIN  47  42  83 S14G24    29.88F
KANKAKEE*      CLOUDY    48  45  90 SE15G22   29.94F
WHEELING       CLOUDY    45  41  86 SE7       29.91F
MORRIS*        CLOUDY    48  45  90 SE17      29.88F
ROMEOVILLE*    CLOUDY    47  47 100 S21       29.90F
NORTHERLY ISL    N/A     44  41  89 S9          N/A
$$

LMZ740>746-281000-
SOUTHERN LAKE MICHIGAN

STATION/POSITION SKY/WX   TEMP    WIND        PRES    VSBY  WAVE
                          AIR SEA DIR/SP/G                  HT/PER
                          (F)     (DEG/KT/KT) (MB)    (MI)  (FT/S)
HARRISON CRIB              40     160/ 12/ 13   N/A
BURNHAM HARBOR             44     100/  6/ 11   N/A
CALUMET HARBOR             46     160/  9/ 16 1013.6F
BURNS HARBOR               47     160/ 14/ 20 1014.6F
MICHIGAN CITY              46     130/ 16/ 20   N/A
$$

ILZ025>027-034>036-040-047-049-050-058-095>099-281000-
WEST-CENTRAL ILLINOIS

CITY           SKY/WX    TMP DP  RH WIND       PRES   REMARKS
QUINCY         PTCLDY    54  49  83 S14       29.81F
GALESBURG*     CLOUDY    49  46  89 SE7       29.82F
MACOMB*        PTCLDY    52  47  85 S13       29.85S
JACKSONVILLE*  PTCLDY    53  49  88 S13       29.87S
PITTSFIELD*    MOCLDY    55  51  86 S9        29.86F
$$

ILZ028>032-037-038-041>044-048-051>054-059>061-281000-
CENTRAL ILLINOIS

CITY           SKY/WX    TMP DP  RH WIND       PRES   REMARKS
PONTIAC        CLOUDY    49  48  97 S13       29.91F
BLOOMINGTON    CLOUDY    47  45  93 SE13      29.90F
DECATUR        CLOUDY    51  47  86 S17       29.91F
PEORIA         CLOUDY    51  48  89 S13       29.86F
LACON*         CLOUDY    49  47  92 S10G16    29.86F
LINCOLN*       MOCLDY    52  50  91 S12       29.89F
SPRINGFIELD    PTCLDY    54  49  83 S17G26    29.88F
TAYLORVILLE    CLOUDY    50  48  92 S13       29.91F
$$

ILZ033-039-045-046-055>057-062-063-281000-
EAST-CENTRAL ILLINOIS

CITY           SKY/WX    TMP DP  RH WIND       PRES   REMARKS
CHAMPAIGN      CLOUDY    51  46  83 S20       29.92F
RANTOUL*       CLOUDY    49  47  93 S9        29.93F
MATTOON        CLOUDY    50  49  96 S14       29.95F
PARIS*         HVY RAIN  48  47  94 S12       29.99F
$$

ILZ079-100>102-281000-
SOUTHWEST ILLINOIS

CITY           SKY/WX    TMP DP  RH WIND       PRES   REMARKS
ALTON          CLOUDY    53  50  90 S8        29.92F
BELLEVILLE     CLOUDY    54  54 100 VRB6      29.92F
CAHOKIA*       CLOUDY    56  50  80 S7        29.91F
SPARTA*        CLOUDY    55  50  83 S12G18    29.97S
$$

ILZ064>066-069>071-074>076-080>082-084>086-088>090-092>094-281000-
SOUTH-CENTRAL ILLINOIS

CITY           SKY/WX    TMP DP  RH WIND       PRES   REMARKS
CARBONDALE     CLOUDY    54  51  90 S12       29.98F
CAIRO*         CLOUDY    55  51  89 S8        30.01F
EFFINGHAM*     CLOUDY    50  50  97 SE8       29.98S
MARION         CLOUDY    55  52  88 S12       29.98F
MT. VERNON     MOCLDY    53  49  86 S9        29.96F
CENTRALIA*     CLOUDY    54  51  90 S8        29.94F
SALEM*         CLOUDY    54  50  86 S5        29.96F
METROPOLIS*    CLOUDY    53  51  91 CALM      30.01F
$$

ILZ067-068-072-073-078-083-087-091-281000-
SOUTHEAST ILLINOIS

CITY           SKY/WX    TMP DP  RH WIND       PRES   REMARKS
LAWRENCEVILLE  LGT RAIN  50  47  89 S12       30.01S
FLORA*         CLOUDY    52  49  90 S8        29.98S
FAIRFIELD*     CLOUDY    52  49  89 S6        29.97F
HARRISBURG*    CLOUDY    55  50  84 S10       30.00F
ROBINSON*      LGT RAIN  48  47  96 SE6       30.01F
CARMI*         CLOUDY    51  48  90 S10       30.00F
$$

ABBREVIATIONS USED IN REMARKS
   TC - TEMPERATURE IN CELSIUS
  WCI - WIND CHILL INDEX
   HX - HEAT INDEX
  VSB - VISIBILITY
$$




USA.gov is the U.S. government's official web portal to all federal, state and local government web resources and services.